OSCAR 7 (AO-7)

Last updated on Sun Apr 12 2026 00:03:15 GMT+0000 (Coordinated Universal Time)

1 07530U 74089B 26101.53554720 -.00000030 00000+0 10288-3 0 9999 2 07530 101.9945 114.0790 0011873 257.9079 270.5743 12.53696996352168
UTC large
Height (km)
Speed (km/s)
/
Latitude / Longitude
Inclination (degrees)
Orbital Period (minutes)
Azimuth
Elevation
Range (km)
Doppler Factor

Next 0 passes for location: London (51.5072 / 0.1276)

Sorry there are no passes over London.
OSCAR 7 (AO-7)